RH
10 10 10 9 8 8 8 8 15 27 29 27 26 29 35 28 25 27 33 36 55 60 63 59 46 39 36 39 38 37 37 44 46 30 28 25 17 22 23 20 24 26 28
12 13 13 14 15 15 14 13 10 8 8 22 32 35 39 52 29 27 33 40 43 61 73 67 54 55 70 69 69 71 63 68 61 38 32 17 21 24 25 24 24 23 24
10 11 11 11 12 13 15 16 16 16 16 13 24 46 53 51 60 72 54 47 67 73 75 76 81 86 80 74 71 75 80 76 69 53 27 24 28 29 22 18 18 21 22
9 9 10 10 11 12 13 15 19 17 20 28 33 33 38 64 85 93 95 89 75 72 82 49 43 55 51 50 50 50 65 74 61 48 42 34 28 25 24 35 38 34 28
17 16 17 17 16 15 16 18 20 22 27 29 33 38 47 62 79 94 97 96 96 93 91 84 69 57 60 71 79 71 80 81 72 52 51 53 52 46 40 42 44 41 35
13 13 14 16 22 28 27 25 26 30 30 34 44 39 42 60 66 83 92 96 96 94 78 67 72 78 94 98 96 86 89 91 90 87 79 80 64 52 51 45 42 37 35
11 12 12 12 12 9 10 18 32 34 36 39 43 48 58 56 96 99 100 95 94 94 89 92 94 87 97 94 88 88 94 96 88 60 41 37 34 31 30 30 29 25 25
15 21 24 24 22 18 20 14 12 22 37 45 51 52 50 56 68 85 98 97 95 93 90 92 95 91 85 96 95 97 98 67 47 32 18 13 16 15 14 14 14 24 27
18 20 23 24 23 28 35 37 36 17 16 30 50 59 58 56 63 82 85 87 88 81 100 96 95 87 86 83 90 92 79 69 30 31 26 26 25 18 16 14 16 21 30
23 28 32 27 11 12 14 43 61 60 28 14 23 43 49 53 58 65 88 90 93 89 83 94 93 87 84 85 93 86 79 81 49 43 42 39 31 24 20 19 18 43 47
27 32 26 12 16 43 45 37 72 77 68 30 15 25 42 36 52 54 64 95 97 94 94 88 85 81 81 74 72 86 99 89 67 59 59 56 41 33 25 22 38 52 55
24 24 10 11 27 43 52 61 75 92 86 67 45 32 28 48 47 51 56 72 97 96 88 96 95 94 93 92 80 96 92 96 83 74 72 54 45 34 30 24 22 36 67
23 23 10 10 34 52 69 90 96 100 91 91 91 63 50 31 37 45 44 47 65 76 91 96 98 98 98 96 99 98 95 96 90 70 54 47 41 37 30 23 28 70 96
29 29 12 11 25 43 80 99 100 99 99 81 84 83 68 58 43 30 46 60 61 62 68 87 98 98 98 97 98 96 96 92 79 54 46 46 41 32 23 36 40 55 83
38 41 24 12 16 28 75 100 100 97 97 98 82 72 71 81 72 71 67 49 93 86 70 88 85 94 98 98 96 92 80 66 51 53 49 41 32 26 34 59 67 84 94
48 49 51 23 16 23 34 46 74 96 90 83 78 74 76 78 79 100 82 58 43 46 97 99 96 98 97 95 93 90 76 63 51 46 39 28 24 60 67 69 85 93 95
51 44 48 60 36 19 25 29 34 32 32 37 60 80 84 86 95 98 96 77 45 30 42 63 81 67 56 43 48 60 48 43 39 37 27 31 73 88 75 82 84 100 97
13 35 47 58 61 59 45 24 32 34 30 32 30 28 32 43 66 90 92 88 70 60 52 38 34 30 32 52 67 53 42 31 30 25 83 83 82 82 99 93 86 95 99
9 12 13 33 29 40 67 76 59 24 24 30 33 36 36 31 30 31 33 40 46 46 42 39 39 42 45 46 42 35 82 61 75 93 98 98 93 96 95 98 98 97 98
9 10 10 11 10 13 28 27 60 70 68 52 33 25 29 36 38 30 26 26 31 44 46 44 37 33 30 25 45 98 100 100 98 98 95 94 96 91 89 94 96 89 80
9 10 10 10 11 12 12 14 17 29 49 67 77 83 68 77 44 28 32 32 34 36 37 30 39 73 77 92 100 99 98 96 91 74 61 50 38 31 32 35 56 59 42
8 8 9 9 10 10 11 13 14 15 16 15 16 16 17 18 41 80 76 76 75 76 86 88 96 100 93 94 68 30 23 23 23 24 24 25 23 23 23 23 22 24 25
10 11 11 11 11 11 12 13 13 12 13 14 15 17 17 18 18 23 28 22 27 27 42 55 59 28 22 21 22 21 21 20 19 18 19 23 21 22 23 23 23 24 24
18 18 19 20 20 20 20 20 20 21 21 20 19 18 17 16 16 17 18 18 19 20 20 20 19 19 20 21 24 27 29 32 34 33 29 30 29 27 28 24 24 24 22
9 9 9 10 12 15 21 25 26 26 27 27 27 27 27 27 28 28 28 29 30 31 32 34 35 36 36 31 24 20 19 20 24 29 23 35 36 35 35 35 32 30 29
23 25 29 32 35 35 28 15 13 15 18 21 24 25 25 27 27 29 30 30 31 31 29 26 24 21 20 25 44 62 68 74 74 70 49 39 36 29 28 26 29 30 34
Wind_Speed
33 35 35 37 38 38 39 39 41 45 47 46 44 43 42 40 39 40 41 41 39 37 35 34 32 33 34 34 33 32 33 32 32 32 29 29 27 26 25 26 27 28 30
39 40 41 41 42 43 43 43 43 43 42 44 46 45 44 44 42 41 41 42 42 40 38 38 36 35 36 36 35 33 32 31 30 30 28 26 26 27 27 28 29 30 31
47 48 48 49 49 48 49 49 49 47 46 45 43 44 43 44 44 42 42 41 41 39 38 38 38 38 39 39 37 34 32 32 31 29 29 29 29 29 30 31 31 32 33
53 54 54 55 55 55 54 54 54 53 50 49 47 46 44 44 43 41 42 41 40 40 40 41 42 43 43 43 40 39 35 34 32 31 32 32 32 32 32 33 35 37 37
56 58 59 60 61 62 61 61 59 58 56 54 51 50 49 46 47 44 46 44 40 41 42 42 43 44 45 46 42 37 36 36 34 32 33 33 34 35 38 40 40 40 41
60 62 63 64 64 64 66 66 66 64 62 61 57 54 53 50 50 48 50 50 44 41 41 43 43 44 50 43 33 42 41 41 38 34 32 34 36 40 42 43 44 44 44
55 59 62 65 67 69 70 69 70 70 67 66 66 60 56 55 48 55 54 53 48 42 43 43 41 42 45 44 50 41 39 39 33 31 36 40 39 40 42 42 42 44 46
47 51 55 59 62 66 70 71 70 70 70 69 68 66 63 61 57 57 55 56 52 47 46 47 42 47 43 46 46 40 42 38 35 34 38 36 38 41 42 40 41 44 47
48 52 58 64 69 72 72 71 70 69 69 69 69 68 66 63 60 59 58 57 54 50 50 50 49 50 50 51 47 46 50 48 42 38 38 39 42 41 41 43 45 46 48
53 58 63 63 68 67 68 67 66 67 67 70 69 66 66 64 64 61 58 57 54 54 54 53 53 52 51 51 51 51 51 52 46 42 42 44 44 44 45 48 47 45 45
51 58 59 60 56 51 51 54 63 63 63 63 68 67 64 64 62 63 60 55 55 55 53 56 58 59 57 55 54 56 53 53 48 47 48 47 44 48 50 52 48 45 48
48 54 52 52 43 46 50 56 56 58 58 59 58 61 65 64 61 60 60 59 56 52 52 44 59 58 58 56 55 55 57 58 52 50 48 46 48 51 55 54 52 52 52
42 48 46 42 37 38 36 35 42 49 49 50 54 57 58 59 62 62 61 61 59 56 53 51 53 59 51 55 55 57 51 47 45 45 47 47 51 58 57 55 51 51 48
36 41 41 38 31 30 24 20 24 36 42 40 42 49 50 51 54 58 62 61 59 59 57 55 49 49 57 51 45 42 37 37 44 50 51 55 56 56 55 53 52 53 54
33 36 35 34 29 24 20 19 18 21 32 42 44 46 49 52 56 56 57 58 54 45 48 55 64 71 43 45 46 43 45 45 51 51 52 52 54 54 51 54 54 49 44
31 32 30 29 27 22 19 14 12 19 25 30 36 41 46 48 50 53 56 57 60 59 54 46 52 57 60 57 50 44 45 47 50 51 52 53 50 51 48 51 50 49 43
29 31 26 25 25 24 20 16 13 11 13 16 20 26 31 36 39 43 49 53 53 54 63 67 67 63 61 52 49 47 48 49 50 49 51 46 44 44 50 54 51 47 46
23 25 22 20 21 22 21 19 16 13 14 14 16 18 21 26 31 37 40 41 44 45 48 54 59 61 57 49 49 49 48 46 44 46 45 45 45 44 44 49 51 53 55
21 23 26 27 26 22 18 17 15 14 12 11 11 14 16 19 22 25 29 33 35 37 38 40 43 45 47 50 49 46 44 42 41 40 39 42 49 53 54 60 53 51 42
19 19 21 23 24 24 26 26 20 14 11 10 11 11 12 15 18 21 21 23 26 30 33 38 41 39 41 39 37 30 33 30 33 30 31 35 36 37 37 35 35 35 39
20 22 23 24 24 23 21 20 20 20 18 16 12 12 15 10 14 14 17 20 24 29 33 32 35 35 32 33 39 37 30 32 33 36 39 42 43 46 47 49 48 49 51
23 23 24 24 23 23 24 22 19 17 16 16 16 16 16 15 10 5 5 5 5 9 15 15 18 27 23 29 32 37 39 41 44 45 48 52 52 54 56 57 57 58 58
27 26 25 25 25 24 23 22 22 22 21 19 18 18 17 16 15 13 16 17 19 21 23 27 31 33 35 37 40 42 45 48 50 51 53 57 57 61 63 65 65 65 65
27 28 28 28 28 27 27 26 26 25 23 23 24 24 24 24 23 24 25 26 28 30 32 34 37 39 41 43 45 47 50 53 55 56 57 59 62 64 68 69 70 72 72
27 28 28 28 29 30 30 29 29 29 29 29 29 29 30 30 30 31 32 32 34 35 37 39 41 44 45 46 48 51 54 56 59 61 62 65 69 71 74 78 79 81 81
29 30 29 29 31 33 32 31 31 30 30 29 30 31 32 33 34 35 35 36 38 39 40 42 43 45 47 50 54 59 61 63 64 66 68 70 75 77 78 81 84 86 87
Wind_Direction
276 276 276 276 275 275 275 273 270 267 264 264 264 264 261 259 260 261 262 263 263 265 266 266 264 266 270 271 272 276 278 279 278 278 277 281 281 283 282 282 285 288 290
280 280 280 280 279 277 275 273 272 271 269 268 266 264 263 264 263 262 262 262 264 263 265 265 263 264 266 269 273 275 275 277 279 277 275 274 276 278 282 285 289 292 294
280 279 279 278 276 275 273 272 271 270 270 270 268 267 266 265 265 265 264 264 261 262 262 262 264 264 267 269 270 271 271 270 271 272 273 274 276 278 282 285 287 290 293
277 277 276 275 273 271 269 268 269 270 269 268 267 266 267 266 266 265 263 262 263 263 266 268 268 269 269 270 270 270 268 268 268 268 270 272 274 277 281 285 290 291 291
279 277 275 272 270 269 268 266 264 264 264 264 263 262 262 261 265 264 266 266 265 268 268 269 268 270 272 270 268 268 267 264 262 265 270 274 276 278 280 283 286 286 287
281 280 278 276 274 271 268 265 264 261 260 260 258 257 258 256 261 258 261 266 266 265 267 266 267 269 266 256 256 283 274 268 260 260 270 282 279 277 276 279 282 284 285
289 287 284 281 278 274 271 267 264 261 259 258 257 255 253 253 244 254 257 262 268 268 264 265 267 268 270 274 279 271 268 274 270 267 268 273 274 277 279 281 281 283 284
292 289 287 284 281 277 271 266 261 258 257 255 256 255 253 252 252 252 251 257 262 261 262 261 255 264 267 265 270 262 275 278 268 271 273 274 279 279 279 281 283 281 282
291 292 291 287 283 277 273 267 260 256 251 252 253 253 252 252 252 254 256 258 260 258 260 262 261 261 264 265 266 264 271 269 269 275 276 278 281 279 279 286 283 282 281
296 296 297 293 284 279 273 266 261 255 251 248 248 251 252 252 252 252 255 259 260 259 259 261 263 265 265 266 267 268 263 262 266 275 277 277 279 280 281 285 284 279 279
301 303 303 298 288 283 279 272 258 254 250 247 246 246 249 251 253 254 254 256 259 259 260 262 262 264 264 264 268 273 269 266 268 274 280 280 280 281 284 286 283 279 275
304 308 311 307 293 287 280 271 258 249 248 245 244 246 249 249 249 253 256 256 257 258 260 260 266 264 264 263 266 267 270 271 272 278 277 280 282 284 285 284 280 276 272
306 313 320 316 303 297 301 281 253 250 245 247 247 246 248 250 252 252 250 253 256 257 257 260 274 259 261 263 268 268 262 263 271 276 283 283 284 283 284 283 278 274 273
310 322 327 328 321 310 307 298 267 252 242 245 250 248 248 250 252 252 254 253 255 256 257 256 264 271 259 262 254 261 263 270 276 288 289 284 282 281 281 279 277 274 274
314 324 335 333 332 335 320 294 278 264 256 247 248 254 254 251 249 252 254 254 251 258 258 261 257 260 263 260 275 289 292 294 290 285 283 281 279 278 275 273 276 276 276
314 323 336 343 342 340 339 332 304 271 261 259 257 257 256 255 255 255 254 253 254 251 256 270 263 263 280 285 291 287 286 284 280 278 280 279 278 273 278 272 274 276 271
326 327 335 351 352 352 349 334 315 300 288 280 268 260 260 263 262 261 258 254 257 258 256 260 271 278 281 283 280 275 275 277 278 279 277 275 276 278 270 276 271 266 269
15 19 11 2 7 8 1 349 340 317 302 294 287 279 271 264 262 259 259 258 259 263 264 266 271 274 278 281 278 277 282 278 278 275 271 265 270 275 271 276 271 262 266
16 16 22 33 40 31 15 10 351 335 326 310 296 286 280 273 269 266 262 257 256 259 264 267 270 273 277 279 283 285 282 284 283 277 271 265 270 266 271 269 267 263 260
360 3 9 12 17 20 25 30 27 21 356 342 322 309 297 290 281 269 263 257 254 256 260 264 268 269 270 270 272 277 269 269 269 271 273 274 275 276 277 277 272 272 274
342 344 347 350 354 359 0 6 7 14 24 27 39 33 20 314 281 276 271 268 264 261 259 262 269 263 262 265 254 264 272 276 278 280 279 278 279 278 277 276 276 273 272
323 325 329 331 334 336 337 341 344 346 346 347 342 343 346 343 355 353 329 265 245 254 250 258 266 263 269 269 273 278 278 279 280 282 284 283 282 280 280 279 277 275 273
316 318 318 318 318 319 321 322 324 324 324 323 322 319 315 312 308 292 284 283 278 279 274 275 275 276 275 275 277 278 280 281 281 281 281 282 283 284 283 282 280 279 277
307 308 310 312 314 315 315 315 315 314 313 312 311 309 306 303 298 293 290 287 285 284 283 281 280 281 282 283 285 286 286 286 286 286 285 287 286 285 284 283 281 280 278
313 314 315 316 315 313 311 310 309 309 309 307 306 304 301 298 295 293 291 290 290 289 288 288 289 290 291 290 291 291 291 290 291 291 288 286 286 285 285 284 282 280 279
317 315 315 317 317 315 313 313 311 309 308 306 304 303 302 300 298 296 295 293 292 291 290 290 289 288 289 290 291 290 290 289 287 287 285 284 284 281 278 281 281 279 277